EST,Max TemperatureF,Mean TemperatureF,Min TemperatureF,Max Dew PointF,MeanDew PointF,Min DewpointF,Max Humidity, Mean Humidity, Min Humidity, Max Sea Level PressureIn, Mean Sea Level PressureIn, Min Sea Level PressureIn, Max VisibilityMiles, Mean VisibilityMiles, Min VisibilityMiles, Max Wind SpeedMPH, Mean Wind SpeedMPH, Max Gust SpeedMPH,PrecipitationIn, CloudCover, Events, WindDirDegrees
2011-12-1,60,44,28,36,31,27,93,66,29,30.36,30.31,30.25,10,10,10,6,1,,0.00,0,,99
2011-12-2,60,44,28,36,32,27,93,62,27,30.45,30.40,30.36,10,10,10,10,2,,0.00,1,,303
2011-12-3,62,46,30,36,32,28,93,49,30,30.49,30.43,30.38,10,10,10,17,7,25,0.00,3,,110
2011-12-4,59,52,46,46,42,34,67,64,58,30.42,30.32,30.26,10,10,10,17,10,20,0.00,6,,106
2011-12-5,69,61,53,54,52,48,82,69,53,30.20,30.11,29.98,10,10,10,14,10,25,0.00,7,,143
2011-12-6,64,62,53,63,61,52,100,96,88,30.05,30.01,29.97,10,4,1,12,6,18,0.00,8,Rain,242
2011-12-7,50,44,37,48,40,30,100,87,75,30.16,29.95,29.86,10,6,2,23,11,29,0.00,7,Rain,293
2011-12-8,51,40,30,34,28,25,81,62,41,30.29,30.25,30.22,10,10,10,8,5,,0.00,3,,322
2011-12-9,53,44,35,36,32,28,87,57,38,30.31,30.27,30.23,10,10,10,6,4,,0.00,5,,308
2011-12-10,48,40,32,30,28,27,87,63,50,30.42,30.39,30.33,10,10,10,9,7,18,0.00,1,,328
2011-12-11,48,38,28,28,26,23,93,53,40,30.52,30.46,30.42,10,10,10,15,8,26,0.00,5,,99
2011-12-12,48,45,42,37,32,25,71,58,49,30.49,30.45,30.43,10,10,10,12,8,21,0.00,8,,109
2011-12-13,64,53,42,48,44,37,93,68,52,30.50,30.42,30.14,10,10,10,6,2,,0.00,0,,349
2011-12-14,68,54,41,48,45,39,100,68,43,30.40,30.34,30.28,10,9,2,8,2,,0.00,2,,225
2011-12-15,69,58,48,55,53,45,88,72,56,30.28,30.22,30.17,10,10,10,12,6,18,0.00,6,,228
2011-12-16,71,60,48,57,53,46,100,81,49,30.24,30.18,30.12,10,9,5,17,7,25,0.00,7,,292
2011-12-17,48,42,35,39,30,23,87,64,37,30.33,30.30,30.26,10,10,10,14,9,21,0.00,2,,320
2011-12-18,51,42,32,30,27,25,75,59,35,30.40,30.35,30.32,10,10,10,12,6,17,0.00,1,,302
2011-12-19,59,44,30,37,32,28,93,55,33,30.35,30.28,30.22,10,10,10,6,2,,0.00,4,,125
2011-12-20,59,54,48,55,52,43,100,89,72,30.20,30.15,30.09,10,7,2,9,7,17,0.00,8,Rain,160
2011-12-21,64,62,59,63,62,57,100,96,94,30.05,30.00,29.95,10,7,2,12,8,21,0.00,7,,210
2011-12-22,68,62,53,64,62,52,100,94,88,30.07,29.99,29.88,7,5,2,18,6,28,0.00,8,Rain,197
2011-12-23,51,48,42,43,40,37,82,74,62,30.33,30.25,30.20,10,10,10,12,10,23,0.00,5,,328
2011-12-24,55,46,37,43,39,36,93,81,54,30.45,30.40,30.35,10,8,3,6,3,,0.00,5,,309
2011-12-25,46,44,42,46,44,39,100,96,87,30.43,30.35,30.30,7,3,1,9,3,,0.00,8,Rain,289
2011-12-26,51,43,35,36,33,30,93,62,47,30.32,30.24,30.13,10,10,7,16,7,28,0.00,5,,112
2011-12-27,50,46,39,46,38,34,100,78,70,30.01,29.87,29.79,10,10,5,23,14,32,0.00,7,Rain,271
2011-12-28,48,40,33,30,28,25,87,65,40,30.15,30.12,30.08,10,10,10,12,7,23,0.00,1,,317
2011-12-29,55,42,28,36,31,27,93,66,36,30.13,30.07,30.03,10,10,10,12,3,17,0.00,2,,251
2011-12-30,62,50,37,48,46,34,100,79,59,30.10,30.01,29.94,10,8,1,10,4,18,0.00,5,Fog,223
2011-12-31,62,52,41,39,35,30,81,56,30,30.18,30.14,30.10,10,10,10,10,6,,0.00,0,,297